Terug naar catalogus

YAOGAN-36 02B

ActiefMilitairVLEO
NORAD 54043·PAYLOAD·🇨🇳 China

Gelanceerd Oct 14, 2022 vanaf Xichang Satellite Launch Center

Loading…

Volgende Passages (komende 24 uur)

TLE

VersSource: Space-Track

Epoch: Sep 14, 2026, 10:16 UTC

1 54043U 22133B   26257.42796162  .00008577  00000-0  25336-3 0  9995
2 54043  34.9956 260.0780 0004889 201.1692 158.8825 15.34174634218553

Volg YAOGAN-36 02B in realtime met AllMySat

Download on the App Store